Regional Weather Roundup
Issued by NWS Burlington, VT

Home | Current Version | Previous Version | Text Only | Print | Product List | Glossary On
Versions: 1 2 3 4 5 6 7 8 9 10 11 12 13 14 15 16 17 18 19 20 21 22 23 24 25 26 27 28 29 30 31 32 33 34 35 36 37 38 39 40 41 42 43 44 45 46 47 48 49 50
000
ASUS41 KBTV 250530
RWRBTV
VERMONT REGIONAL WEATHER ROUNDUP
NATIONAL WEATHER SERVICE BURLINGTON VT
100 AM EDT SUN JUN 25 2017

NOTE: "FAIR" INDICATES FEW OR NO CLOUDS BELOW 12,000 FEET WITH NO
SIGNIFICANT WEATHER AND/OR OBSTRUCTIONS TO VISIBILITY.

* THESE REPORTS ARE NOT UNDER NWS QUALITY CONTROL AND/OR DO NOT
  REPORT WEATHER SUCH AS PRECIPITATION AND FOG.

VTZ001>019-250600-
_____VERMONT_____


CITY           SKY/WX    TMP DP  RH WIND       PRES   REMARKS
BURLINGTON     PTCLDY    65  53  65 SW5       29.85S
MONTPELIER     CLEAR     63  51  65 W7        29.90R
MORRISVILLE    PTCLDY    58  52  80 CALM      29.86S
ST. JOHNSBURY*   N/A     59  56  89 MISG      29.83R
LYNDONVILLE*   FAIR      59  52  78 CALM      29.87R
MIDDLEBURY*    FAIR      56  52  87 SE3       29.87S
RUTLAND*       CLEAR     66  48  52 W7        29.89S
SPRINGFIELD    CLEAR     62  50  64 W6        29.88S
HIGHGATE*      MOCLDY    59  59  99 CALM      29.84R
NEWPORT*       FAIR      58  53  85 W3        29.85R
BENNINGTON     CLEAR     65  51  60 W6        29.92R
SUTTON*          N/A     55 N/A N/A MISG        N/A
ISLAND POND*     N/A     55 N/A N/A W2          N/A
GALLUP MILLS*    N/A     52 N/A N/A MISG        N/A
UNION VILLAGE*   N/A     55 N/A N/A MISG        N/A
MT. MANSFIELD*   N/A     52 N/A N/A W26         N/A

_____LAKE CHAMPLAIN_____


CITY           SKY/WX    TMP DP  RH WIND       PRES   REMARKS
BURTON ISLAND*   N/A     64  57  77 W7          N/A
COLCHESTER RF*   N/A     66  57  72 W13         N/A
DIAMOND ISL*     N/A     70  50  49 W8G14       N/A

$$

NYZ007-026>031-035-052-083-087-250600-
_____NORTHERN NEW YORK_____


CITY           SKY/WX    TMP DP  RH WIND       PRES   REMARKS
PLATTSBURGH    CLOUDY    62  55  77 S6        29.84S
SARANAC LAKE   MOCLDY    54  52  93 S5        29.89R
MASSENA        MOCLDY    59  58  96 SW5       29.87S
OGDENSBURG*    FAIR      57  55  94 CALM      29.87F
POTSDAM*       CLEAR     55  55 100 S3        29.88S
STARK FALLS*     N/A     59 N/A N/A SW5         N/A
WATERTOWN      CLEAR     60  58  92 S3        29.89R
FT DRUM        CLEAR     58  56  94 S7        29.89S
ALBANY         PTCLDY    65  54  67 W5        29.92R
GLENS FALLS    CLEAR     62  50  64 SW7       29.89R

$$
NHZ002-005-011-250600-
_____NEW HAMPSHIRE_____


CITY           SKY/WX    TMP DP  RH WIND       PRES   REMARKS
LEBANON        CLEAR     59  51  75 S6        29.86R
KEENE          CLOUDY    63  59  87 S3        29.88S
MT WASHINGTON  FOG       43  43 100 W48G56      N/A  VSB 0   WCI  30
PLYMOUTH       FAIR      57  52  84 CALM      29.84S
WHITEFIELD     PTCLDY    58  52  80 S3        29.85R

$$

_____REGIONAL QUEBEC LOCATIONS_____


CITY           SKY/WX    TMP DP  RH WIND       PRES   REMARKS
MONTREAL       MOCLDY    63  55  77 W9        29.83R
QUEBEC CITY    PTCLDY    57  52  82 W5        29.75R
SHERBROOKE     CLEAR     57  57 100 SW6       29.81R

_____REGIONAL ONTARIO LOCATIONS_____


CITY           SKY/WX    TMP DP  RH WIND       PRES   REMARKS
OTTAWA         PTCLDY    57  55  94 W7        29.87R

______KEY______
VSB  - VISIBILITY IN MILES
WCI  - WIND CHILL INDEX
HX   - HEAT INDEX
$$
NNNN




USA.gov is the U.S. government's official web portal to all federal, state and local government web resources and services.